Point Pleasant, WV

5:29 AM EDT on September 24, 2017 (GMT -0400)
Point Pleasant

Weather History for K3I2 - January, 2009

Change the Weather History Date:

Sunday, January 11, 2009

  Actual Average (KHTS) Record (KHTS)
Temperature  
Mean Temperature 32 °F -  
Max Temperature 33 °F 40 °F 66 °F (1963)
Min Temperature 30 °F 24 °F -6 °F (1982)
Degree Days  
Heating Degree Days 34    
Moisture  
Dew Point 25 °F    
Average Humidity 77    
Maximum Humidity 93    
Minimum Humidity 69    
Precipitation  
Precipitation 0.00 in - - ()
Sea Level Pressure  
Sea Level Pressure 30.11 in    
Wind  
Wind Speed 5 mph (WNW)    
Max Wind Speed 10 mph    
Max Gust Speed 22 mph    
Visibility 9 miles    
Events Snow    
Averages and records for this station are not official NWS values.
T = Trace of Precipitation, MM = Missing Value Source: NWS Daily Summary

Daily Weather History Graph

Daily Weather History Graph

Search for Another Location

Airport or City:

Trip Planner

Search our weather history database for the weather conditions in past years. The results will help you decide how hot, cold, wet, or windy it might be!

Date:

Astronomy

Jan. 11, 2009 Rise Set
Actual Time 7:46 AM EST 5:26 PM EST
Civil Twilight 7:17 AM EST 5:56 PM EST
Nautical Twilight 6:44 AM EST 6:29 PM EST
Astronomical Twilight 6:12 AM EST 7:01 PM EST
Moon 6:18 PM EST (1/11) 8:15 AM EST (1/11)
Length of Visible Light 10h 38m
Length of Day
9h 39m
Full, 100% of the Moon is Illuminated
Jan 11
Full
Jan 17
Last Quarter
Jan 26
New
Feb 2
First Quarter
Feb 9
Full

Hourly Weather History & Observations

Time (EST) Temp. Windchill Dew Point Humidity Pressure Visibility Wind Dir Wind Speed Gust Speed Precip Events Conditions
12:00 AM 33.8 °F 25.8 °F 32.0 °F 93% 29.97 in 10.0 mi WNW 10.4 mph 16.1 mph N/A   Overcast
12:20 AM 33.8 °F 26.4 °F 30.2 °F 87% 29.99 in 10.0 mi West 9.2 mph 17.3 mph N/A   Overcast
12:40 AM 33.8 °F 26.4 °F 30.2 °F 87% 30.00 in 10.0 mi WNW 9.2 mph 21.9 mph N/A   Overcast
1:00 AM 32.0 °F 24.8 °F 28.4 °F 87% 30.01 in 10.0 mi West 8.1 mph 18.4 mph N/A   Overcast
1:20 AM 32.0 °F 24.8 °F 28.4 °F 87% 30.02 in 10.0 mi WNW 8.1 mph - N/A   Overcast
1:40 AM 32.0 °F 26.4 °F 28.4 °F 87% 30.02 in 10.0 mi WNW 5.8 mph 16.1 mph N/A   Overcast
2:00 AM 32.0 °F 25.6 °F 28.4 °F 87% 30.03 in 10.0 mi WNW 6.9 mph - N/A   Overcast
2:20 AM 32.0 °F 27.5 °F 28.4 °F 87% 30.05 in 10.0 mi West 4.6 mph - N/A   Overcast
2:40 AM 32.0 °F 24.8 °F 28.4 °F 87% 30.07 in 10.0 mi WNW 8.1 mph - N/A   Overcast
3:00 AM 32.0 °F 24.8 °F 26.6 °F 80% 30.07 in 10.0 mi WNW 8.1 mph - N/A   Overcast
3:20 AM 32.0 °F 24.8 °F 26.6 °F 80% 30.08 in 10.0 mi WNW 8.1 mph - N/A   Overcast
3:40 AM 32.0 °F 25.6 °F 26.6 °F 80% 30.09 in 10.0 mi West 6.9 mph - N/A   Overcast
4:00 AM 32.0 °F 26.4 °F 26.6 °F 80% 30.10 in 10.0 mi WNW 5.8 mph - N/A   Overcast
4:20 AM 32.0 °F 27.5 °F 26.6 °F 80% 30.10 in 10.0 mi WNW 4.6 mph - N/A   Overcast
4:40 AM 32.0 °F 26.4 °F 24.8 °F 75% 30.10 in 10.0 mi WNW 5.8 mph - N/A   Overcast
5:00 AM 30.2 °F 25.4 °F 23.0 °F 75% 30.10 in 10.0 mi WNW 4.6 mph - N/A   Overcast
5:20 AM 30.2 °F 25.4 °F 23.0 °F 75% 30.11 in 10.0 mi West 4.6 mph - N/A   Overcast
5:40 AM 30.2 °F 25.4 °F 23.0 °F 75% 30.11 in 10.0 mi WNW 4.6 mph - N/A   Overcast
6:00 AM 30.2 °F - 23.0 °F 75% 30.12 in 10.0 mi Calm Calm - N/A   Overcast
6:20 AM 30.2 °F 25.4 °F 23.0 °F 75% 30.12 in 10.0 mi WNW 4.6 mph - N/A   Overcast
6:40 AM 30.2 °F - 23.0 °F 75% 30.12 in 10.0 mi Calm Calm - N/A   Overcast
7:00 AM 30.2 °F 23.4 °F 21.2 °F 69% 30.13 in 10.0 mi West 6.9 mph - N/A   Overcast
7:20 AM 30.2 °F 25.4 °F 23.0 °F 75% 30.14 in 10.0 mi WNW 4.6 mph - N/A   Overcast
7:40 AM 30.2 °F - 23.0 °F 75% 30.15 in 10.0 mi Calm Calm - N/A   Overcast
8:00 AM 30.2 °F 25.4 °F 23.0 °F 75% 30.16 in 10.0 mi NW 4.6 mph - N/A   Overcast
8:20 AM 30.2 °F 26.7 °F 23.0 °F 75% 30.16 in 10.0 mi WNW 3.5 mph - N/A   Overcast
8:40 AM 30.2 °F - 23.0 °F 75% 30.16 in 10.0 mi Calm Calm - N/A   Overcast
9:00 AM 30.2 °F - 23.0 °F 75% 30.16 in 10.0 mi Calm Calm - N/A   Overcast
9:20 AM 30.2 °F 26.7 °F 23.0 °F 75% 30.16 in 10.0 mi NW 3.5 mph - N/A   Overcast
9:40 AM 30.2 °F - 23.0 °F 75% 30.16 in 10.0 mi Calm Calm - N/A   Overcast
10:00 AM 30.2 °F 26.7 °F 21.2 °F 69% 30.16 in 10.0 mi WNW 3.5 mph - N/A   Overcast
10:20 AM 30.2 °F - 23.0 °F 75% 30.17 in 10.0 mi Calm Calm - N/A   Overcast
10:40 AM 30.2 °F 26.7 °F 23.0 °F 75% 30.17 in 10.0 mi WNW 3.5 mph - N/A   Overcast
11:00 AM 30.2 °F 26.7 °F 23.0 °F 75% 30.16 in 7.0 mi WNW 3.5 mph - N/A   Overcast
11:20 AM 30.2 °F 26.7 °F 21.2 °F 69% 30.16 in 10.0 mi WNW 3.5 mph - N/A   Overcast
11:40 AM 30.2 °F 25.4 °F 23.0 °F 75% 30.16 in 10.0 mi West 4.6 mph - N/A   Overcast
12:00 PM 30.2 °F 26.7 °F 23.0 °F 75% 30.16 in 5.0 mi WNW 3.5 mph - N/A   Haze
12:20 PM 30.2 °F - 23.0 °F 75% 30.15 in 4.0 mi Calm Calm - N/A   Haze
12:40 PM 30.2 °F 25.4 °F 23.0 °F 75% 30.13 in 7.0 mi WNW 4.6 mph - N/A   Overcast
1:00 PM 30.2 °F - 23.0 °F 75% 30.12 in 5.0 mi Calm Calm - N/A Snow Light Snow
1:20 PM 32.0 °F 28.7 °F 23.0 °F 69% 30.11 in 5.0 mi West 3.5 mph - N/A Snow Light Snow
1:40 PM 32.0 °F 28.7 °F 23.0 °F 69% 30.11 in 10.0 mi West 3.5 mph - N/A   Overcast
2:00 PM 32.0 °F - 23.0 °F 69% 30.10 in 7.0 mi Calm Calm - N/A Snow Light Snow
2:20 PM 32.0 °F - 23.0 °F 69% 30.09 in 10.0 mi Calm Calm - N/A   Overcast
2:40 PM 32.0 °F 28.7 °F 23.0 °F 69% 30.09 in 10.0 mi West 3.5 mph - N/A   Overcast
3:00 PM 32.0 °F - 23.0 °F 69% 30.09 in 10.0 mi Calm Calm - N/A   Overcast
3:20 PM 32.0 °F - 23.0 °F 69% 30.09 in 10.0 mi Calm Calm - N/A   Overcast
3:40 PM 32.0 °F - 23.0 °F 69% 30.09 in 10.0 mi Calm Calm - N/A   Overcast
4:00 PM 32.0 °F 27.5 °F 23.0 °F 69% 30.10 in 10.0 mi WSW 4.6 mph - N/A   Overcast
4:20 PM 32.0 °F - 23.0 °F 69% 30.10 in 10.0 mi Calm Calm - N/A   Overcast
4:40 PM 32.0 °F 28.7 °F 23.0 °F 69% 30.10 in 10.0 mi WSW 3.5 mph - N/A   Overcast
5:00 PM 32.0 °F 28.7 °F 23.0 °F 69% 30.10 in 7.0 mi SW 3.5 mph - N/A   Overcast
5:20 PM 32.0 °F 28.7 °F 24.8 °F 75% 30.11 in 7.0 mi SW 3.5 mph - N/A   Overcast
5:40 PM 32.0 °F - 24.8 °F 75% 30.10 in 4.0 mi Calm Calm - N/A Snow Light Snow
6:00 PM 32.0 °F - 26.6 °F 80% 30.11 in 5.0 mi Calm Calm - N/A Snow Light Snow
6:20 PM 30.2 °F - 26.6 °F 86% 30.11 in 7.0 mi Calm Calm - N/A   Overcast
6:40 PM 30.2 °F - 26.6 °F 86% 30.11 in 10.0 mi Calm Calm - N/A   Overcast
7:00 PM 30.2 °F - 26.6 °F 86% 30.11 in 10.0 mi Calm Calm - N/A   Overcast
7:20 PM 30.2 °F - 26.6 °F 86% 30.11 in 10.0 mi Calm Calm - N/A   Overcast
7:40 PM 30.2 °F - 26.6 °F 86% 30.11 in 10.0 mi Calm Calm - N/A   Overcast
8:00 PM 32.0 °F - 26.6 °F 80% 30.11 in 10.0 mi Calm Calm - N/A   Overcast
8:20 PM 32.0 °F 27.5 °F 26.6 °F 80% 30.12 in 7.0 mi SW 4.6 mph - N/A   Overcast
8:40 PM 32.0 °F 27.5 °F 26.6 °F 80% 30.12 in 10.0 mi SW 4.6 mph - N/A   Overcast
9:00 PM 32.0 °F 27.5 °F 26.6 °F 80% 30.12 in 10.0 mi WSW 4.6 mph - N/A   Overcast
9:20 PM 32.0 °F 26.4 °F 24.8 °F 75% 30.12 in 10.0 mi WSW 5.8 mph - N/A   Overcast
9:40 PM 32.0 °F 27.5 °F 24.8 °F 75% 30.12 in 10.0 mi SW 4.6 mph - N/A   Overcast
10:00 PM 32.0 °F 25.6 °F 23.0 °F 69% 30.12 in 10.0 mi SW 6.9 mph - N/A   Overcast
10:20 PM 32.0 °F 25.6 °F 23.0 °F 69% 30.13 in 7.0 mi WSW 6.9 mph - N/A   Overcast
10:40 PM 32.0 °F 26.4 °F 23.0 °F 69% 30.13 in 10.0 mi SW 5.8 mph - N/A   Overcast
11:00 PM 32.0 °F 25.6 °F 23.0 °F 69% 30.13 in 7.0 mi WSW 6.9 mph - N/A Snow Light Snow
11:20 PM 32.0 °F 25.6 °F 24.8 °F 75% 30.13 in 10.0 mi SW 6.9 mph - N/A Snow Light Snow
11:40 PM 32.0 °F 24.2 °F 24.8 °F 75% 30.14 in 3.0 mi WSW 9.2 mph - N/A Snow Light Snow